Location: Bédeille
(43.0872°N, 1.1041°E)
Time: 02:13:37
(UTC+00:00)

USA 215 - Pass Details

Date: 03 February 2023
Orbit: 1102 x 1106 km, 123.0° (Epoch: 26 March)

Event Time Altitude Azimuth Distance (km) Brightness Sun altitude
Rises 18:14:03 0° 139° (SE) 3,907 5.9 -12.0°
Reaches altitude 10° 18:16:32 10° 142° (SE) 2,952 5.3 -12.4°
Maximum altitude 18:23:01 67° 224° (SW) 1,184 3.6 -13.6°
Drops below altitude 10° 18:29:32 10° 307° (NW) 2,964 6.2 -14.8°
Sets 18:32:03 0° 310° (NW) 3,925 6.8 -15.2°
